Back to catalog

QIANFAN-164

AliveCommunicationsPO
NORAD 69326·PAYLOAD·🇨🇳 China

Launched Jun 1, 2026 from Jiuquan Satellite Launch Center

Loading…

Next Passes (next 24 hours)

TLE

FreshSource: Space-Track

Epoch: Sep 14, 2026, 12:26 UTC

1 69326U 26121B   26257.51858521  .00000034  00000-0  34262-4 0  9993
2 69326  89.0107 291.6141 0001947 111.4583 248.6776 13.51021241 14231

Track QIANFAN-164 in real time with AllMySat

Download on the App Store